Location: Baia Mare
(47.6567°N, 23.5850°E)
Time: 13:31:30
(UTC+03:00)

ISS - Pass Details

Date: 27 July 2019
Orbit: 409 x 418 km, 51.6° (Epoch: 21 July)

Event Time Altitude Azimuth Distance (km) Brightness Sun altitude
Rises 23:07:22 0° 292° (WNW) 2,356 1.1 -15.7°
Reaches altitude 10° 23:09:29 10° 296° (WNW) 1,490 0.0 -15.9°
Maximum altitude 23:12:48 62° 18° (NNE) 469 -3.4 -16.3°
Enters shadow 23:14:21 28° 91° (E) 808 -2.6 -16.4°
